Regional Weather Roundup
Issued by NWS Grand Forks, ND

Home | Current Version | Previous Version | Graphics & Text | Print | Product List | Glossary Off
Versions: 1 2 3 4 5 6 7 8 9 10 11 12 13 14 15 16 17 18 19 20 21 22 23 24 25 26 27 28 29 30 31 32 33 34 35 36 37 38 39 40 41 42 43 44 45 46 47 48 49 50

000
ASUS43 KFGF 210210
RWRFGF
PRAIRIE TO PINES  WEATHER ROUNDUP
NATIONAL WEATHER SERVICE EASTERN NORTH DAKOTA/GRAND FORKS ND
900 PM CDT SAT SEP 20 2014

 **SATELLITE DATA USED TO AUGMENT SKY COVER AT AUTOMATED STATIONS**
 *****  WEATHER ACROSS EASTERN NORTH DAKOTA  *****

CITY           SKY/WX    TMP DP  RH WIND       PRES   REMARKS
GRAND FORKS    MOCLDY    53  50  89 NW5       29.90R
GRAND FRKS AFB MOCLDY    53  52  99 NW5       29.92R
GRAND FRKS NWS   N/A     55 N/A N/A N6          N/A
DEVILS LAKE    CLOUDY    63  45  51 NW17G23   29.95R
FARGO          CLOUDY    60  49  66 NW10      29.89R
WAHPETON ARPT  CLEAR     59  46  63 W9        29.90R
$$

 ***** WEATHER ACROSS CENTRAL AND WESTERN NORTH DAKOTA  *****

CITY           SKY/WX    TMP DP  RH WIND       PRES   REMARKS
BISMARCK       CLEAR     63  40  42 NW8       30.07R
MINOT          CLEAR     57  41  55 NW12      30.04R
JAMESTOWN      CLEAR     59  42  53 NW15      29.97R
MINOT AFB      CLEAR     57  43  59 NW12      30.04R
GARRISON         N/A     58  40  51 NW10      30.07R
WILLISTON      CLEAR     57  36  45 NW8       30.14R
DICKINSON      CLEAR     52  36  54 NW8       30.14R
HETTINGER      CLEAR     52  36  54 NW10      30.16R
$$

 *****  OTHER AIRPORT OBSERVATIONS IN OUR AREA  *****

CITY           SKY/WX    TMP DP  RH WIND       PRES   REMARKS
WALHALLA       LGT RAIN  54  54 100 NW7       29.93R
GRAFTON AIRPOR LGT RAIN  54  54 100 NW9       29.92R
VALLEY CITY AR FAIR      59  45  58 NW13      29.94R
CANDO          CLOUDY    59  45  58 NW16G22   29.98R
CAVALIER APRT  MOCLDY    54  52  94 NW6       29.92R
GWINNER        CLEAR     57  45  62 W8        29.96R
ROLLA          CLOUDY    59  45  58 NW18G26   29.99R
 ***** THE ABOVE OBSERVATIONS ARE NON NWS ARE NOT QUALITY
       CONTROLLED AND MAY MIS-REPORT RAIN FOR SNOW...
$$

  *****  WEATHER ACROSS NORTHERN MINNESOTA  *****

CITY           SKY/WX    TMP DP  RH WIND       PRES   REMARKS
FLAG ISLAND    LGT RAIN  52  50  93 N12       29.85R
WARROAD        DRIZZLE   52  46  82 NW3       29.87R
ROSEAU         MOCLDY    48  45  87 N3        29.87R
HALLOCK        PTCLDY    54  52  94 W5        29.90R
THF RVR FALLS  CLOUDY    54  50  87 NW8       29.87S
BAUDETTE       LGT RAIN  51  49  92 NW10      29.84R
WASKISH        LGT RAIN  52  48  87 NW6       29.84R
CROOKSTON      LGT RAIN  55  52  88 N3        29.89
STEPHEN NDAWN    N/A     54  52  94 NW6         N/A
GREENBUSH NDAW   N/A     54  52  94 NW5         N/A
$$
  *****  WEATHER ACROSS CENTRAL AND WEST MINNESOTA  *****

CITY           SKY/WX    TMP DP  RH WIND       PRES   REMARKS
FOSSTON        CLOUDY    52  50  93 NW7       29.89R
BEMIDJI        MOCLDY    49  47  94 NW7       29.85R
PARK RAPIDS    MOCLDY    56  46  69 NW18G26   29.85R
ELBOW LAKE     MOCLDY    55  51  87 W8        29.89R
WADENA         PTCLDY    55  48  76 NW7       29.86R
DETROIT LAKES  RAIN      54  52  94 N14       29.90R
MOORHEAD       MOCLDY    59  54  82 N9        29.90R
FERGUS FALLS   PTCLDY    55  46  71 N5        29.90R
MORRIS MN      CLEAR     55  52  88 W8        29.89S
STAPLES        CLEAR     55  48  76 NW10      29.85R
$$
  *****  WEATHER ELSEWHERE ACROSS MINNESOTA  *****

CITY           SKY/WX    TMP DP  RH WIND       PRES   REMARKS
DULUTH         RAIN      55  52  89 NW7       29.70R FOG
INTRNTL FALLS  RAIN      52  51  97 NW13      29.79R FOG
ELY            CLOUDY    52  48  87 CALM      29.72R
CLOQUET        RAIN      54  52  94 NW3       29.71S
WHEATON        CLEAR     57  48  72 W8        29.93R
BRAINERD       PTCLDY    56  49  77 W20G28    29.81R
HIBBING        RAIN      55  52  89 N13       29.72R
ALEXANDRIA     CLEAR     56  50  80 W8        29.89R
SAINT CLOUD    CLEAR     59  49  69 W10       29.84R
MINNEAPOLIS    PTCLDY    59  53  80 W15       29.85R
$$

  *****  WEATHER ACROSS SOUTH DAKOTA  *****

CITY           SKY/WX    TMP DP  RH WIND       PRES   REMARKS
SIOUX FALLS    PTCLDY    65  44  46 N14       30.00R
BROOKINGS      NOT AVBL
WATERTOWN      CLEAR     60  46  59 W12       29.98R
HURON          MOCLDY    57  42  57 NW7       30.03R
SISSETON         N/A     61  47  59 NW13      29.93R
ABERDEEN       CLEAR     62  44  51 W12       30.01R
MITCHELL       CLEAR     58  46  64 NW8       30.04R
PIERRE         CLEAR     56  37  49 NW10      30.08R
MOBRIDGE       PTCLDY    55  46  71 NW7       30.06R
RAPID CITY     CLEAR     56  41  57 N8        30.22R
$$

  *****  SOME WEATHER IN NEARBY STATES *****

CITY           SKY/WX    TMP DP  RH WIND       PRES   REMARKS
GLASGOW MT     CLEAR     60  35  39 N5        30.19R
GREAT FALLS MT CLEAR     63  41  44 E12       30.22R
CHEYENNE WY    MOCLDY    65  44  46 NE6       30.33R
SCOTTSBLUFF NE CLEAR     65  41  41 NE8       30.22R
OMAHA NE       PTCLDY    72  59  63 W5        29.95R
DES MOINES IA  CLEAR     72  59  63 W8        29.87R
DAVENPORT IA   CLEAR     71  65  81 SW9       29.80F
CHICAGO IL     PTCLDY    69  62  78 SW5       29.79F
EAU CLAIRE WI  CLOUDY    58  55  90 W6        29.76R
LA CROSSE WI   LGT RAIN  63  61  93 S7        29.74S
$$

  *****  SOME NATIONAL WEATHER *****

CITY           SKY/WX    TMP DP  RH WIND       PRES   REMARKS
LA GUARDIA NY  PTCLDY    69  63  81 S10       30.09F
RALEIGH NC     MOCLDY    68  59  73 NE5       30.02F
ATLANTA GA     CLEAR     74  60  61 E5        30.05R
NEW ORLEANS LA PTCLDY    81  69  67 E8        29.97R
OKLAHOMA CITY  PTCLDY    76  67  73 SE8       30.01R
ALBUQUERQUE NM MOCLDY    79  49  34 SE13      30.13R
SALT LAKE CITY MOCLDY    72  54  53 W8        30.06R
LOS ANGELES CA PTCLDY    70  59  68 W10       29.90R
BOISE ID       CLEAR     79  48  33 NW6       30.00S
SEATTLE WA     PTCLDY    70  56  61 N6        29.92F
$$

*** WEATHER ACROSS MANITOBA...SASKATCHEWAN AND ONTARIO ***
                ***ONTARIO***

CITY           SKY/WX    TMP DP  RH WIND       PRES   REMARKS
GERALDTON      DRZL/FOG  46  46 100 N8        29.77  VSB 3/4
THUNDER BAY    CLOUDY    54  50  87 NE6       29.74R
SIOUX LOOKOUT  PTCLDY    45  45 100 VRB2      29.79R
TORONTO        MOCLDY    72  63  73 S16       29.78F
BIG TROUT LK   MOCLDY    39  34  81 NW6       29.86R
PICKLE LAKE    CLOUDY    43  37  81 VRB3      29.82R
DRYDEN         CLOUDY    52  46  82 N6        29.79R
KENORA         LGT RAIN  50  48  93 NW8       29.84R
$$
                *** MANITOBA***

CITY           SKY/WX    TMP DP  RH WIND       PRES   REMARKS
BRANDON        MOCLDY    57  48  72 NW9       29.99R
DAUPHIN        CLOUDY    57  50  77 NW8       29.97R
ISLAND LAKE    CLOUDY    50  43  76 CALM      29.88R
PILOT MOUND    NOT AVBL
THE PAS        CLOUDY    55  52  88 W7        29.93R
THOMPSON       MOCLDY    45  43  93 N5        29.93R
WINNIPEG       MOCLDY    52  50  93 W8        29.90R
LYNN LAKE      CLOUDY    45  41  87 SW3       29.94R
CHURCHILL      CLOUDY    36  36 100 NW3       29.96R
GILLAM         PTCLDY    39  36  87 E5        29.93R
$$
                ***SASKATCHEWAN***

CITY           SKY/WX    TMP DP  RH WIND       PRES   REMARKS
ESTEVAN        NOT AVBL
KINDERSLEY     PTCLDY    57  41  54 W7        30.16R
LLOYDMINSTER   CLEAR     50  34  53 W12       30.09S
PRINCE ALBERT  CLEAR     52  45  76 W3        30.04R
REGINA         PTCLDY    55  43  62 W10       30.10R
YORKTON        CLOUDY    57  45  62 NW7       30.02R
N. BATTLEFORD  CLEAR     55  36  47 NW6       30.11R
LA RONGE       PTCLDY    52  46  82 W5        30.02R
SASKATOON      PTCLDY    54  37  54 W5        30.10R
SWIFT CURRENT  CLEAR     52  34  50 W8        30.17R
$$
NOTE: THESE ARE AUTOMATED STATIONS WITH LIMITED QUALITY CONTROL
      "FAIR" INDICATES FEW OR NO CLOUDS BELOW 12,000 FEET WITH NO
      SIGNIFICANT WEATHER AND/OR OBSTRUCTIONS TO VISIBILITY.
      SKY/WX - SKY CONDITION AND SIGNIFICANT WEATHER.
      TMP - AIR TEMPERATURE.    DP   - DEWPOINT TEMPERATURE.
      RH  - RELATIVE HUMIDITY.  PRES - PRESSURE.
      HX  - HEAT INDEX.         WCI  - WIND CHILL INDEX.
$



USA.gov is the U.S. government's official web portal to all federal, state and local government web resources and services.